Location: Unspecified
(0.0000°N, 0.0000°E)
Time: 16:58:51
(UTC+00:00)

deb Kosmos-1275 - Pass Details

Date: 15 March 2026
Orbit: 897 x 929 km, 83.0° (Epoch: 18 April)

Event Time Altitude Azimuth Distance (km) Brightness Sun altitude
Rises 20:09:25 0° 195° (SSW) 3,537 ? -30.1°
Reaches altitude 10° 20:11:57 10° 200° (SSW) 2,599 ? -30.8°
Maximum altitude 20:17:37 48° 273° (W) 1,180 ? -32.2°
Drops below altitude 10° 20:23:19 10° 346° (NNW) 2,609 ? -33.6°
Sets 20:25:53 0° 352° (N) 3,553 ? -34.2°
